Time,TemperatureF,DewpointF,PressureIn,WindDirection,WindDirectionDegrees,WindSpeedMPH,WindSpeedGustMPH,Humidity,HourlyPrecipIn,Conditions,Clouds,dailyrainin,SoftwareType,DateUTC
2013-03-04 00:00:00,31.7,20.9,29.90,WNW,300,9.0,14.0,64,0.00,,SKC,0.00,VWS V14.00,2013-03-04 05:00:00,
2013-03-04 00:05:00,31.7,20.9,29.90,WNW,289,4.0,17.0,64,0.00,,SKC,0.00,VWS V14.00,2013-03-04 05:05:00,
2013-03-04 00:10:00,31.6,21.2,29.90,WNW,291,6.0,17.0,65,0.00,,SKC,0.00,VWS V14.00,2013-03-04 05:10:00,
2013-03-04 00:15:00,31.5,21.1,29.90,WSW,252,6.0,17.0,65,0.00,,SKC,0.00,VWS V14.00,2013-03-04 05:15:00,
2013-03-04 00:20:00,31.4,21.0,29.90,NW,312,8.0,17.0,65,0.00,,SKC,0.00,VWS V14.00,2013-03-04 05:20:00,
2013-03-04 00:25:00,31.4,21.0,29.90,NW,321,10.0,13.0,65,0.00,,SKC,0.00,VWS V14.00,2013-03-04 05:25:00,
2013-03-04 00:30:00,31.4,21.0,29.90,WNW,296,9.0,15.0,65,0.00,,SKC,0.00,VWS V14.00,2013-03-04 05:30:00,
2013-03-04 00:35:00,31.3,20.9,29.90,WNW,288,7.0,16.0,65,0.00,,SKC,0.00,VWS V14.00,2013-03-04 05:35:00,
2013-03-04 00:40:00,31.2,20.8,29.90,WNW,290,11.0,16.0,65,0.00,,SKC,0.00,VWS V14.00,2013-03-04 05:40:00,
2013-03-04 00:45:00,31.2,20.8,29.90,WNW,287,11.0,16.0,65,0.00,,SKC,0.00,VWS V14.00,2013-03-04 05:45:00,
2013-03-04 00:50:00,31.1,20.7,29.91,NW,304,5.0,16.0,65,0.00,,SKC,0.00,VWS V14.00,2013-03-04 05:50:00,
2013-03-04 00:55:00,31.0,20.6,29.91,NW,317,10.0,21.0,65,0.00,,SKC,0.00,VWS V14.00,2013-03-04 05:55:00,
2013-03-04 01:00:00,30.9,20.5,29.91,WNW,290,6.0,21.0,65,0.00,,SKC,0.00,VWS V14.00,2013-03-04 06:00:00,
2013-03-04 01:05:00,30.8,20.4,29.91,WNW,290,11.0,21.0,65,0.00,,SKC,0.00,VWS V14.00,2013-03-04 06:05:00,
2013-03-04 01:10:00,30.7,20.3,29.91,NW,313,6.0,21.0,65,0.00,,SKC,0.00,VWS V14.00,2013-03-04 06:10:00,
2013-03-04 01:15:00,30.7,20.3,29.91,West,279,6.0,21.0,65,0.00,,SKC,0.00,VWS V14.00,2013-03-04 06:15:00,
2013-03-04 01:20:00,30.6,20.2,29.91,West,268,6.0,21.0,65,0.00,,SKC,0.00,VWS V14.00,2013-03-04 06:20:00,
2013-03-04 01:25:00,30.5,19.8,29.91,NW,309,6.0,14.0,64,0.00,,SKC,0.00,VWS V14.00,2013-03-04 06:25:00,
2013-03-04 01:30:00,30.5,19.8,29.91,WNW,293,13.0,18.0,64,0.00,,SKC,0.00,VWS V14.00,2013-03-04 06:30:00,
2013-03-04 01:35:00,30.4,19.7,29.91,WNW,292,8.0,18.0,64,0.00,,SKC,0.00,VWS V14.00,2013-03-04 06:35:00,
2013-03-04 01:40:00,30.4,19.7,29.91,WNW,284,6.0,18.0,64,0.00,,SKC,0.00,VWS V14.00,2013-03-04 06:40:00,
2013-03-04 01:45:00,30.3,19.6,29.91,WNW,296,13.0,18.0,64,0.00,,SKC,0.00,VWS V14.00,2013-03-04 06:45:00,
2013-03-04 01:50:00,30.2,19.5,29.91,NW,323,12.0,18.0,64,0.00,,SKC,0.00,VWS V14.00,2013-03-04 06:50:00,
2013-03-04 01:55:00,30.1,19.4,29.91,WNW,294,9.0,15.0,64,0.00,,SKC,0.00,VWS V14.00,2013-03-04 06:55:00,
2013-03-04 02:00:00,30.0,19.3,29.91,NNW,331,7.0,15.0,64,0.00,,SKC,0.00,VWS V14.00,2013-03-04 07:00:00,
2013-03-04 02:05:00,29.9,18.9,29.91,WNW,296,7.0,15.0,63,0.00,,SKC,0.00,VWS V14.00,2013-03-04 07:05:00,
2013-03-04 02:10:00,29.9,18.9,29.91,WNW,296,8.0,15.0,63,0.00,,SKC,0.00,VWS V14.00,2013-03-04 07:10:00,
2013-03-04 02:15:00,29.8,19.1,29.91,WNW,295,4.0,15.0,64,0.00,,SKC,0.00,VWS V14.00,2013-03-04 07:15:00,
2013-03-04 02:20:00,29.8,19.1,29.91,WNW,294,7.0,15.0,64,0.00,,SKC,0.00,VWS V14.00,2013-03-04 07:20:00,
2013-03-04 02:25:00,29.7,19.4,29.91,WNW,295,9.0,11.0,65,0.00,,SKC,0.00,VWS V14.00,2013-03-04 07:25:00,
2013-03-04 02:30:00,29.6,18.6,29.91,WNW,300,6.0,15.0,63,0.00,,SKC,0.00,VWS V14.00,2013-03-04 07:30:00,
2013-03-04 02:35:00,29.5,18.5,29.91,NW,315,7.0,15.0,63,0.00,,SKC,0.00,VWS V14.00,2013-03-04 07:35:00,
2013-03-04 02:40:00,29.4,18.4,29.91,NW,309,11.0,15.0,63,0.00,,SKC,0.00,VWS V14.00,2013-03-04 07:40:00,
2013-03-04 02:45:00,29.3,18.3,29.91,WSW,254,10.0,24.0,63,0.00,,SKC,0.00,VWS V14.00,2013-03-04 07:45:00,
2013-03-04 02:50:00,29.3,17.9,29.91,WNW,298,13.0,24.0,62,0.00,,SKC,0.00,VWS V14.00,2013-03-04 07:50:00,
2013-03-04 02:55:00,29.2,17.8,29.91,WNW,292,11.0,12.0,62,0.00,,SKC,0.00,VWS V14.00,2013-03-04 07:55:00,
2013-03-04 03:00:00,29.2,17.8,29.91,WNW,300,9.0,18.0,62,0.00,,SKC,0.00,VWS V14.00,2013-03-04 08:00:00,
2013-03-04 03:05:00,29.0,18.0,29.91,WNW,301,7.0,18.0,63,0.00,,SKC,0.00,VWS V14.00,2013-03-04 08:05:00,
2013-03-04 03:10:00,29.0,18.0,29.91,NW,316,10.0,18.0,63,0.00,,SKC,0.00,VWS V14.00,2013-03-04 08:10:00,
2013-03-04 03:15:00,28.9,17.9,29.91,NW,311,7.0,18.0,63,0.00,,SKC,0.00,VWS V14.00,2013-03-04 08:15:00,
2013-03-04 03:20:00,28.8,18.2,29.91,NNW,330,4.0,18.0,64,0.00,,SKC,0.00,VWS V14.00,2013-03-04 08:20:00,
2013-03-04 03:25:00,28.6,18.0,29.91,WNW,292,11.0,12.0,64,0.00,,SKC,0.00,VWS V14.00,2013-03-04 08:25:00,
2013-03-04 03:30:00,28.5,17.9,29.91,West,275,6.0,15.0,64,0.00,,SKC,0.00,VWS V14.00,2013-03-04 08:30:00,
2013-03-04 03:35:00,28.4,17.8,29.91,WNW,286,7.0,15.0,64,0.00,,SKC,0.00,VWS V14.00,2013-03-04 08:35:00,
2013-03-04 03:40:00,28.4,17.8,29.91,WNW,292,5.0,15.0,64,0.00,,SKC,0.00,VWS V14.00,2013-03-04 08:40:00,
2013-03-04 03:45:00,28.4,17.8,29.92,WNW,296,11.0,18.0,64,0.00,,SKC,0.00,VWS V14.00,2013-03-04 08:45:00,
2013-03-04 03:50:00,28.4,17.8,29.92,WNW,302,7.0,21.0,64,0.00,,SKC,0.00,VWS V14.00,2013-03-04 08:50:00,
2013-03-04 03:55:00,28.3,17.7,29.92,NW,306,8.0,16.0,64,0.00,,SKC,0.00,VWS V14.00,2013-03-04 08:55:00,
2013-03-04 04:00:00,28.3,17.7,29.92,WNW,297,7.0,16.0,64,0.00,,SKC,0.00,VWS V14.00,2013-03-04 09:00:00,
2013-03-04 04:05:00,28.2,17.6,29.92,NW,304,6.0,16.0,64,0.00,,SKC,0.00,VWS V14.00,2013-03-04 09:05:00,
2013-03-04 04:10:00,28.2,17.6,29.92,NW,313,7.0,16.0,64,0.00,,SKC,0.00,VWS V14.00,2013-03-04 09:10:00,
2013-03-04 04:15:00,28.2,17.6,29.92,WNW,296,11.0,16.0,64,0.00,,SKC,0.00,VWS V14.00,2013-03-04 09:15:00,
2013-03-04 04:20:00,28.2,18.0,29.92,NW,311,6.0,16.0,65,0.00,,SKC,0.00,VWS V14.00,2013-03-04 09:20:00,
2013-03-04 04:25:00,28.1,17.9,29.92,West,271,9.0,17.0,65,0.00,,SKC,0.00,VWS V14.00,2013-03-04 09:25:00,
2013-03-04 04:30:00,28.0,17.4,29.93,NW,323,8.0,23.0,64,0.00,,SKC,0.00,VWS V14.00,2013-03-04 09:30:00,
2013-03-04 04:35:00,28.0,17.8,29.93,WNW,284,8.0,23.0,65,0.00,,SKC,0.00,VWS V14.00,2013-03-04 09:35:00,
2013-03-04 04:40:00,28.0,17.8,29.93,WNW,290,6.0,23.0,65,0.00,,SKC,0.00,VWS V14.00,2013-03-04 09:40:00,
2013-03-04 04:45:00,28.0,17.8,29.93,WNW,299,11.0,23.0,65,0.00,,SKC,0.00,VWS V14.00,2013-03-04 09:45:00,
2013-03-04 04:50:00,28.1,17.9,29.93,WNW,298,7.0,23.0,65,0.00,,SKC,0.00,VWS V14.00,2013-03-04 09:50:00,
2013-03-04 04:55:00,28.1,17.9,29.93,NW,311,7.0,13.0,65,0.00,,SKC,0.00,VWS V14.00,2013-03-04 09:55:00,
2013-03-04 05:00:00,28.0,17.8,29.93,WNW,302,11.0,14.0,65,0.00,,SKC,0.00,VWS V14.00,2013-03-04 10:00:00,
2013-03-04 05:05:00,28.1,17.9,29.94,WNW,289,4.0,15.0,65,0.00,,SKC,0.00,VWS V14.00,2013-03-04 10:05:00,
2013-03-04 05:10:00,28.1,18.2,29.94,NW,320,9.0,18.0,66,0.00,,SKC,0.00,VWS V14.00,2013-03-04 10:10:00,
2013-03-04 05:15:00,28.1,17.9,29.94,WNW,290,13.0,18.0,65,0.00,,SKC,0.00,VWS V14.00,2013-03-04 10:15:00,
2013-03-04 05:20:00,28.1,18.2,29.94,WNW,299,7.0,18.0,66,0.00,,SKC,0.00,VWS V14.00,2013-03-04 10:20:00,
2013-03-04 05:25:00,28.0,17.8,29.94,NW,310,8.0,8.0,65,0.00,,SKC,0.00,VWS V14.00,2013-03-04 10:25:00,
2013-03-04 05:30:00,27.9,18.0,29.94,NW,313,8.0,15.0,66,0.00,,SKC,0.00,VWS V14.00,2013-03-04 10:30:00,
2013-03-04 05:35:00,27.9,18.0,29.94,WNW,288,6.0,15.0,66,0.00,,SKC,0.00,VWS V14.00,2013-03-04 10:35:00,
2013-03-04 05:40:00,27.8,17.6,29.94,NW,306,6.0,15.0,65,0.00,,SKC,0.00,VWS V14.00,2013-03-04 10:40:00,
2013-03-04 05:45:00,27.8,17.9,29.95,WNW,300,11.0,18.0,66,0.00,,SKC,0.00,VWS V14.00,2013-03-04 10:45:00,
2013-03-04 05:50:00,27.8,17.9,29.95,WNW,294,6.0,18.0,66,0.00,,SKC,0.00,VWS V14.00,2013-03-04 10:50:00,
2013-03-04 05:55:00,27.8,17.9,29.95,NW,306,5.0,13.0,66,0.00,,SKC,0.00,VWS V14.00,2013-03-04 10:55:00,
2013-03-04 06:00:00,27.8,17.9,29.95,NW,304,8.0,13.0,66,0.00,,SKC,0.00,VWS V14.00,2013-03-04 11:00:00,
2013-03-04 06:05:00,27.8,17.9,29.95,North,11,9.0,16.0,66,0.00,,SKC,0.00,VWS V14.00,2013-03-04 11:05:00,
2013-03-04 06:10:00,27.9,18.4,29.95,NW,307,6.0,16.0,67,0.00,,SKC,0.00,VWS V14.00,2013-03-04 11:10:00,
2013-03-04 06:15:00,27.9,18.0,29.95,West,274,11.0,23.0,66,0.00,,SKC,0.00,VWS V14.00,2013-03-04 11:15:00,
2013-03-04 06:20:00,27.9,18.0,29.95,NW,311,5.0,23.0,66,0.00,,SKC,0.00,VWS V14.00,2013-03-04 11:20:00,
2013-03-04 06:25:00,27.9,18.0,29.96,NW,308,7.0,13.0,66,0.00,,SKC,0.00,VWS V14.00,2013-03-04 11:25:00,
2013-03-04 06:30:00,27.9,18.0,29.96,WNW,288,5.0,14.0,66,0.00,,SKC,0.00,VWS V14.00,2013-03-04 11:30:00,
2013-03-04 06:35:00,27.9,18.0,29.96,WNW,301,8.0,18.0,66,0.00,,SKC,0.00,VWS V14.00,2013-03-04 11:35:00,
2013-03-04 06:40:00,27.9,18.4,29.96,NW,321,10.0,18.0,67,0.00,,SKC,0.00,VWS V14.00,2013-03-04 11:40:00,
2013-03-04 06:45:00,28.0,18.1,29.96,WNW,302,7.0,21.0,66,0.00,,SKC,0.00,VWS V14.00,2013-03-04 11:45:00,
2013-03-04 06:50:00,28.0,18.5,29.96,WNW,297,6.0,21.0,67,0.00,,SKC,0.00,VWS V14.00,2013-03-04 11:50:00,
2013-03-04 06:55:00,28.0,18.5,29.96,West,272,7.0,14.0,67,0.00,,SKC,0.00,VWS V14.00,2013-03-04 11:55:00,
2013-03-04 07:00:00,28.0,18.5,29.96,WNW,296,9.0,20.0,67,0.00,,SKC,0.00,VWS V14.00,2013-03-04 12:00:00,
2013-03-04 07:05:00,28.1,18.6,29.96,NW,306,5.0,20.0,67,0.00,,SKC,0.00,VWS V14.00,2013-03-04 12:05:00,
2013-03-04 07:10:00,28.1,18.6,29.96,WNW,290,8.0,20.0,67,0.00,,SKC,0.00,VWS V14.00,2013-03-04 12:10:00,
2013-03-04 07:15:00,28.1,18.6,29.97,WNW,296,6.0,20.0,67,0.00,,SKC,0.00,VWS V14.00,2013-03-04 12:15:00,
2013-03-04 07:20:00,28.2,18.7,29.97,WNW,300,6.0,20.0,67,0.00,,SKC,0.00,VWS V14.00,2013-03-04 12:20:00,
2013-03-04 07:25:00,28.2,18.7,29.97,NW,310,9.0,14.0,67,0.00,,SKC,0.00,VWS V14.00,2013-03-04 12:25:00,
2013-03-04 07:30:00,28.3,18.8,29.97,WNW,302,13.0,21.0,67,0.00,,SKC,0.00,VWS V14.00,2013-03-04 12:30:00,
2013-03-04 07:35:00,28.3,18.8,29.97,WNW,302,4.0,21.0,67,0.00,,SKC,0.00,VWS V14.00,2013-03-04 12:35:00,
2013-03-04 07:40:00,28.3,19.1,29.97,NW,306,13.0,21.0,68,0.00,,SKC,0.00,VWS V14.00,2013-03-04 12:40:00,
2013-03-04 07:45:00,28.4,19.2,29.97,WNW,300,2.0,21.0,68,0.00,,SKC,0.00,VWS V14.00,2013-03-04 12:45:00,
2013-03-04 07:50:00,28.4,19.2,29.98,WNW,299,8.0,21.0,68,0.00,,SKC,0.00,VWS V14.00,2013-03-04 12:50:00,
2013-03-04 07:55:00,28.4,19.2,29.98,West,279,8.0,11.0,68,0.00,,SKC,0.00,VWS V14.00,2013-03-04 12:55:00,
2013-03-04 08:00:00,28.5,19.3,29.98,West,269,7.0,16.0,68,0.00,,SKC,0.00,VWS V14.00,2013-03-04 13:00:00,
2013-03-04 08:05:00,28.7,19.5,29.98,West,278,11.0,19.0,68,0.00,,SKC,0.00,VWS V14.00,2013-03-04 13:05:00,
2013-03-04 08:10:00,28.7,19.5,29.98,NW,312,14.0,19.0,68,0.00,,SKC,0.00,VWS V14.00,2013-03-04 13:10:00,
2013-03-04 08:15:00,28.9,20.0,29.98,NW,308,8.0,19.0,69,0.00,,SKC,0.00,VWS V14.00,2013-03-04 13:15:00,
2013-03-04 08:20:00,28.8,19.6,29.98,West,276,8.0,19.0,68,0.00,,SKC,0.00,VWS V14.00,2013-03-04 13:20:00,
2013-03-04 08:25:00,28.9,19.7,29.98,WNW,295,8.0,14.0,68,0.00,,SKC,0.00,VWS V14.00,2013-03-04 13:25:00,
2013-03-04 08:30:00,29.0,19.8,29.98,WNW,284,16.0,16.0,68,0.00,,SKC,0.00,VWS V14.00,2013-03-04 13:30:00,
2013-03-04 08:35:00,29.1,19.9,29.98,WNW,296,12.0,19.0,68,0.00,,SKC,0.00,VWS V14.00,2013-03-04 13:35:00,
2013-03-04 08:40:00,29.1,19.5,29.98,WNW,296,12.0,19.0,67,0.00,,SKC,0.00,VWS V14.00,2013-03-04 13:40:00,
2013-03-04 08:45:00,29.2,19.6,29.98,NW,318,7.0,19.0,67,0.00,,SKC,0.00,VWS V14.00,2013-03-04 13:45:00,
2013-03-04 08:50:00,29.2,19.6,29.98,WNW,296,8.0,19.0,67,0.00,,SKC,0.00,VWS V14.00,2013-03-04 13:50:00,
2013-03-04 08:55:00,29.2,19.6,29.99,WNW,293,6.0,12.0,67,0.00,,SKC,0.00,VWS V14.00,2013-03-04 13:55:00,
2013-03-04 09:00:00,29.2,19.6,29.99,WNW,300,7.0,20.0,67,0.00,,SKC,0.00,VWS V14.00,2013-03-04 14:00:00,
2013-03-04 09:05:00,29.2,20.0,29.99,NW,309,4.0,20.0,68,0.00,,SKC,0.00,VWS V14.00,2013-03-04 14:05:00,
2013-03-04 09:10:00,29.3,20.1,29.99,NW,311,9.0,20.0,68,0.00,,SKC,0.00,VWS V14.00,2013-03-04 14:10:00,
2013-03-04 09:15:00,29.4,19.8,29.99,West,279,12.0,20.0,67,0.00,,SKC,0.00,VWS V14.00,2013-03-04 14:15:00,
2013-03-04 09:20:00,29.4,19.8,29.99,WNW,297,11.0,20.0,67,0.00,,SKC,0.00,VWS V14.00,2013-03-04 14:20:00,
2013-03-04 09:25:00,29.5,20.3,29.99,WNW,296,7.0,12.0,68,0.00,,SKC,0.00,VWS V14.00,2013-03-04 14:25:00,
2013-03-04 09:30:00,29.7,20.5,29.99,NW,305,15.0,15.0,68,0.00,,SKC,0.00,VWS V14.00,2013-03-04 14:30:00,
2013-03-04 09:35:00,29.7,20.5,29.99,WNW,286,9.0,15.0,68,0.00,,SKC,0.00,VWS V14.00,2013-03-04 14:35:00,
2013-03-04 09:40:00,29.7,20.5,29.99,West,270,9.0,20.0,68,0.00,,SKC,0.00,VWS V14.00,2013-03-04 14:40:00,
2013-03-04 09:45:00,29.7,20.1,29.99,West,280,11.0,20.0,67,0.00,,SKC,0.00,VWS V14.00,2013-03-04 14:45:00,
2013-03-04 09:50:00,29.7,20.5,29.99,WNW,295,13.0,20.0,68,0.00,,SKC,0.00,VWS V14.00,2013-03-04 14:50:00,
2013-03-04 09:55:00,29.7,20.5,29.99,WNW,284,9.0,15.0,68,0.00,,SKC,0.00,VWS V14.00,2013-03-04 14:55:00,
2013-03-04 10:00:00,29.9,20.6,29.99,WNW,288,6.0,19.0,68,0.00,,SKC,0.00,VWS V14.00,2013-03-04 15:00:00,
2013-03-04 10:05:00,30.1,20.5,29.99,WNW,290,9.0,19.0,67,0.00,,SKC,0.00,VWS V14.00,2013-03-04 15:05:00,
2013-03-04 10:10:00,30.1,20.5,29.99,WNW,302,11.0,19.0,67,0.00,,SKC,0.00,VWS V14.00,2013-03-04 15:10:00,
2013-03-04 10:15:00,30.2,20.6,29.99,WSW,255,4.0,19.0,67,0.00,,SKC,0.00,VWS V14.00,2013-03-04 15:15:00,
2013-03-04 10:20:00,30.3,20.3,29.99,WSW,256,12.0,19.0,66,0.00,,SKC,0.00,VWS V14.00,2013-03-04 15:20:00,
2013-03-04 10:25:00,30.4,20.8,29.99,NW,309,11.0,17.0,67,0.00,,SKC,0.00,VWS V14.00,2013-03-04 15:25:00,
2013-03-04 10:30:00,30.5,20.5,29.99,NW,305,6.0,19.0,66,0.00,,SKC,0.00,VWS V14.00,2013-03-04 15:30:00,
2013-03-04 10:35:00,30.6,20.6,29.99,West,281,12.0,20.0,66,0.00,,SKC,0.00,VWS V14.00,2013-03-04 15:35:00,
2013-03-04 10:40:00,30.7,20.3,29.99,WNW,288,6.0,20.0,65,0.00,,SKC,0.00,VWS V14.00,2013-03-04 15:40:00,
2013-03-04 10:45:00,30.7,20.0,29.99,West,276,6.0,21.0,64,0.00,,SKC,0.00,VWS V14.00,2013-03-04 15:45:00,
2013-03-04 10:50:00,30.9,20.5,29.99,West,275,13.0,21.0,65,0.00,,SKC,0.00,VWS V14.00,2013-03-04 15:50:00,
2013-03-04 10:55:00,31.0,20.3,29.99,NW,304,9.0,19.0,64,0.00,,SKC,0.00,VWS V14.00,2013-03-04 15:55:00,
2013-03-04 11:00:00,31.2,20.5,29.99,NNW,341,12.0,19.0,64,0.00,,SKC,0.00,VWS V14.00,2013-03-04 16:00:00,
2013-03-04 11:05:00,31.6,20.8,29.99,WNW,284,7.0,19.0,64,0.00,,SKC,0.00,VWS V14.00,2013-03-04 16:05:00,
2013-03-04 11:10:00,32.0,20.5,29.99,NNW,336,10.0,19.0,62,0.00,,SKC,0.00,VWS V14.00,2013-03-04 16:10:00,
2013-03-04 11:15:00,32.3,20.8,29.99,NNW,329,11.0,19.0,62,0.00,,SKC,0.00,VWS V14.00,2013-03-04 16:15:00,
2013-03-04 11:20:00,32.3,20.4,29.99,WNW,300,8.0,19.0,61,0.00,,SKC,0.00,VWS V14.00,2013-03-04 16:20:00,
2013-03-04 11:25:00,31.9,20.0,29.99,NW,317,12.0,17.0,61,0.00,,SKC,0.00,VWS V14.00,2013-03-04 16:25:00,
2013-03-04 11:30:00,31.8,19.9,29.99,WNW,285,12.0,24.0,61,0.00,,SKC,0.00,VWS V14.00,2013-03-04 16:30:00,
2013-03-04 11:35:00,31.9,20.4,29.99,WNW,296,13.0,24.0,62,0.00,,SKC,0.00,VWS V14.00,2013-03-04 16:35:00,
2013-03-04 11:40:00,32.3,21.1,29.99,WNW,295,7.0,24.0,63,0.00,,SKC,0.00,VWS V14.00,2013-03-04 16:40:00,
2013-03-04 11:45:00,32.5,20.6,29.99,WNW,285,9.0,24.0,61,0.00,,SKC,0.00,VWS V14.00,2013-03-04 16:45:00,
2013-03-04 11:50:00,32.8,20.9,29.99,WNW,290,14.0,24.0,61,0.00,,SKC,0.00,VWS V14.00,2013-03-04 16:50:00,
2013-03-04 11:55:00,32.9,20.9,29.99,West,279,13.0,20.0,61,0.00,,SKC,0.00,VWS V14.00,2013-03-04 16:55:00,
2013-03-04 12:00:00,33.0,21.0,29.99,NNW,340,9.0,20.0,61,0.00,,SKC,0.00,VWS V14.00,2013-03-04 17:00:00,
2013-03-04 12:05:00,33.2,20.8,29.99,WNW,286,4.0,20.0,60,0.00,,SKC,0.00,VWS V14.00,2013-03-04 17:05:00,
2013-03-04 12:10:00,33.4,20.6,29.98,NW,305,12.0,21.0,59,0.00,,SKC,0.00,VWS V14.00,2013-03-04 17:10:00,
2013-03-04 12:15:00,34.0,22.0,29.99,NW,317,12.0,21.0,61,0.00,,SKC,0.00,VWS V14.00,2013-03-04 17:15:00,
2013-03-04 12:20:00,34.4,20.8,29.98,NW,315,11.0,25.0,57,0.00,,SKC,0.00,VWS V14.00,2013-03-04 17:20:00,
2013-03-04 12:25:00,34.2,21.0,29.98,NW,325,12.0,12.0,58,0.00,,SKC,0.00,VWS V14.00,2013-03-04 17:25:00,
2013-03-04 12:30:00,34.3,21.1,29.98,West,269,8.0,15.0,58,0.00,,SKC,0.00,VWS V14.00,2013-03-04 17:30:00,
2013-03-04 12:35:00,34.1,20.9,29.98,WNW,302,11.0,18.0,58,0.00,,SKC,0.00,VWS V14.00,2013-03-04 17:35:00,
2013-03-04 12:40:00,34.1,20.9,29.97,NW,316,9.0,18.0,58,0.00,,SKC,0.00,VWS V14.00,2013-03-04 17:40:00,
2013-03-04 12:45:00,33.9,20.7,29.97,NW,307,9.0,19.0,58,0.00,,SKC,0.00,VWS V14.00,2013-03-04 17:45:00,
2013-03-04 12:50:00,34.6,21.8,29.97,North,5,13.0,22.0,59,0.00,,SKC,0.00,VWS V14.00,2013-03-04 17:50:00,
2013-03-04 12:55:00,35.3,22.0,29.97,NNW,327,9.0,18.0,58,0.00,,SKC,0.00,VWS V14.00,2013-03-04 17:55:00,
2013-03-04 13:00:00,36.0,22.7,29.97,NW,315,17.0,19.0,58,0.00,,SKC,0.00,VWS V14.00,2013-03-04 18:00:00,
2013-03-04 13:05:00,35.9,21.8,29.97,WNW,289,13.0,23.0,56,0.00,,SKC,0.00,VWS V14.00,2013-03-04 18:05:00,
2013-03-04 13:10:00,35.8,21.6,29.96,NW,319,6.0,23.0,56,0.00,,SKC,0.00,VWS V14.00,2013-03-04 18:10:00,
2013-03-04 13:15:00,35.7,22.0,29.96,North,355,11.0,23.0,57,0.00,,SKC,0.00,VWS V14.00,2013-03-04 18:15:00,
2013-03-04 13:20:00,35.8,22.1,29.96,West,274,13.0,23.0,57,0.00,,SKC,0.00,VWS V14.00,2013-03-04 18:20:00,
2013-03-04 13:25:00,35.6,21.5,29.96,NW,306,14.0,18.0,56,0.00,,SKC,0.00,VWS V14.00,2013-03-04 18:25:00,
2013-03-04 13:29:00,35.4,21.7,29.96,WNW,300,11.0,18.0,57,0.00,,SKC,0.00,VWS V14.00,2013-03-04 18:29:00,
2013-03-04 13:30:00,36.1,21.9,29.95,WNW,295,14.0,25.0,56,0.00,,SKC,0.00,VWS V14.00,2013-03-04 18:30:00,
2013-03-04 13:34:00,35.6,21.9,29.95,NW,310,13.0,19.0,57,0.00,,SKC,0.00,VWS V14.00,2013-03-04 18:34:00,
2013-03-04 13:39:00,35.8,21.6,29.95,NW,305,15.0,22.0,56,0.00,,SKC,0.00,VWS V14.00,2013-03-04 18:39:00,
2013-03-04 13:44:00,36.0,21.8,29.95,NW,309,11.0,22.0,56,0.00,,SKC,0.00,VWS V14.00,2013-03-04 18:44:00,
2013-03-04 13:49:00,36.7,23.3,29.95,WNW,292,18.0,22.0,58,0.00,,SKC,0.00,VWS V14.00,2013-03-04 18:49:00,
2013-03-04 13:54:00,36.7,22.1,29.95,WNW,286,18.0,19.0,55,0.00,,SKC,0.00,VWS V14.00,2013-03-04 18:54:00,
2013-03-04 13:59:00,36.8,24.6,29.95,West,277,14.0,19.0,61,0.00,,SKC,0.00,VWS V14.00,2013-03-04 18:59:00,
2013-03-04 14:00:00,36.4,22.6,29.96,WNW,288,16.0,22.0,57,0.00,,SKC,0.00,VWS V14.00,2013-03-04 19:00:00,
2013-03-04 14:04:00,36.8,22.6,29.95,West,265,12.0,22.0,56,0.00,,SKC,0.00,VWS V14.00,2013-03-04 19:04:00,
2013-03-04 14:09:00,36.4,22.2,29.95,WNW,290,19.0,22.0,56,0.00,,SKC,0.00,VWS V14.00,2013-03-04 19:09:00,
2013-03-04 14:14:00,36.2,22.5,29.95,NW,309,11.0,22.0,57,0.00,,SKC,0.00,VWS V14.00,2013-03-04 19:14:00,
2013-03-04 14:19:00,36.4,22.6,29.95,NW,316,11.0,22.0,57,0.00,,SKC,0.00,VWS V14.00,2013-03-04 19:19:00,
2013-03-04 14:24:00,36.0,22.3,29.95,NW,312,18.0,18.0,57,0.00,,SKC,0.00,VWS V14.00,2013-03-04 19:24:00,
2013-03-04 14:29:00,36.2,22.9,29.95,NW,306,12.0,21.0,58,0.00,,SKC,0.00,VWS V14.00,2013-03-04 19:29:00,
2013-03-04 14:30:00,36.8,22.6,29.96,NW,311,12.0,21.0,56,0.00,,SKC,0.00,VWS V14.00,2013-03-04 19:30:00,
2013-03-04 14:34:00,36.4,22.6,29.95,NW,307,12.0,21.0,57,0.00,,SKC,0.00,VWS V14.00,2013-03-04 19:34:00,
2013-03-04 14:39:00,36.6,22.8,29.95,NW,315,10.0,22.0,57,0.00,,SKC,0.00,VWS V14.00,2013-03-04 19:39:00,
2013-03-04 14:44:00,36.2,22.5,29.96,NW,315,11.0,22.0,57,0.00,,SKC,0.00,VWS V14.00,2013-03-04 19:44:00,
2013-03-04 14:49:00,36.2,22.9,29.96,WNW,292,9.0,22.0,58,0.00,,SKC,0.00,VWS V14.00,2013-03-04 19:49:00,
2013-03-04 14:54:00,36.3,22.1,29.96,WNW,292,15.0,19.0,56,0.00,,SKC,0.00,VWS V14.00,2013-03-04 19:54:00,
2013-03-04 14:59:00,36.1,21.9,29.96,West,281,16.0,21.0,56,0.00,,SKC,0.00,VWS V14.00,2013-03-04 19:59:00,
2013-03-04 15:00:00,37.3,22.6,29.96,NW,320,8.0,22.0,55,0.00,,SKC,0.00,VWS V14.00,2013-03-04 20:00:00,
2013-03-04 15:04:00,36.1,22.8,29.96,NNW,342,7.0,21.0,58,0.00,,SKC,0.00,VWS V14.00,2013-03-04 20:04:00,
2013-03-04 15:09:00,36.5,22.7,29.96,NW,325,8.0,21.0,57,0.00,,SKC,0.00,VWS V14.00,2013-03-04 20:09:00,
2013-03-04 15:14:00,37.0,23.2,29.96,NW,308,8.0,21.0,57,0.00,,SKC,0.00,VWS V14.00,2013-03-04 20:14:00,
2013-03-04 15:19:00,36.9,22.7,29.96,NNW,333,14.0,21.0,56,0.00,,SKC,0.00,VWS V14.00,2013-03-04 20:19:00,
2013-03-04 15:24:00,36.8,22.2,29.96,NW,304,8.0,16.0,55,0.00,,SKC,0.00,VWS V14.00,2013-03-04 20:24:00,
2013-03-04 15:29:00,37.1,22.9,29.96,North,11,10.0,22.0,56,0.00,,SKC,0.00,VWS V14.00,2013-03-04 20:29:00,
2013-03-04 15:30:00,36.8,22.2,29.96,NW,304,11.0,22.0,55,0.00,,SKC,0.00,VWS V14.00,2013-03-04 20:30:00,
2013-03-04 15:34:00,37.3,22.6,29.96,WNW,302,8.0,22.0,55,0.00,,SKC,0.00,VWS V14.00,2013-03-04 20:34:00,
2013-03-04 15:39:00,37.2,23.0,29.96,NNW,333,9.0,22.0,56,0.00,,SKC,0.00,VWS V14.00,2013-03-04 20:39:00,
2013-03-04 15:44:00,37.1,22.4,29.96,NW,321,1.0,22.0,55,0.00,,SKC,0.00,VWS V14.00,2013-03-04 20:44:00,
2013-03-04 15:49:00,37.3,23.5,29.96,WNW,301,8.0,22.0,57,0.00,,SKC,0.00,VWS V14.00,2013-03-04 20:49:00,
2013-03-04 15:54:00,37.3,22.6,29.96,NW,315,7.0,11.0,55,0.00,,SKC,0.00,VWS V14.00,2013-03-04 20:54:00,
2013-03-04 15:59:00,37.3,22.2,29.96,NW,310,11.0,18.0,54,0.00,,SKC,0.00,VWS V14.00,2013-03-04 20:59:00,
2013-03-04 16:00:00,35.7,22.0,29.97,NW,305,13.0,23.0,57,0.00,,SKC,0.00,VWS V14.00,2013-03-04 21:00:00,
2013-03-04 16:04:00,37.5,22.8,29.96,WNW,294,11.0,20.0,55,0.00,,SKC,0.00,VWS V14.00,2013-03-04 21:04:00,
2013-03-04 16:09:00,37.3,22.2,29.96,WNW,286,11.0,20.0,54,0.00,,SKC,0.00,VWS V14.00,2013-03-04 21:09:00,
2013-03-04 16:14:00,36.9,22.3,29.96,WNW,291,8.0,20.0,55,0.00,,SKC,0.00,VWS V14.00,2013-03-04 21:14:00,
2013-03-04 16:19:00,36.9,22.3,29.96,West,275,12.0,22.0,55,0.00,,SKC,0.00,VWS V14.00,2013-03-04 21:19:00,
2013-03-04 16:24:00,36.8,22.6,29.96,NW,319,17.0,18.0,56,0.00,,SKC,0.00,VWS V14.00,2013-03-04 21:24:00,
2013-03-04 16:29:00,36.5,22.3,29.96,WNW,290,8.0,22.0,56,0.00,,SKC,0.00,VWS V14.00,2013-03-04 21:29:00,
2013-03-04 16:30:00,35.2,21.9,29.98,WNW,286,12.0,19.0,58,0.00,,SKC,0.00,VWS V14.00,2013-03-04 21:30:00,
2013-03-04 16:34:00,36.4,22.2,29.96,NW,305,14.0,22.0,56,0.00,,SKC,0.00,VWS V14.00,2013-03-04 21:34:00,
2013-03-04 16:39:00,36.3,22.1,29.96,WNW,296,7.0,22.0,56,0.00,,SKC,0.00,VWS V14.00,2013-03-04 21:39:00,
2013-03-04 16:44:00,36.1,21.5,29.96,NW,313,9.0,23.0,55,0.00,,SKC,0.00,VWS V14.00,2013-03-04 21:44:00,
2013-03-04 16:49:00,35.9,22.2,29.97,WNW,284,14.0,23.0,57,0.00,,SKC,0.00,VWS V14.00,2013-03-04 21:49:00,
2013-03-04 16:54:00,35.7,22.0,29.97,WNW,300,15.0,15.0,57,0.00,,SKC,0.00,VWS V14.00,2013-03-04 21:54:00,
2013-03-04 16:59:00,35.5,21.8,29.97,West,281,13.0,19.0,57,0.00,,SKC,0.00,VWS V14.00,2013-03-04 21:59:00,
2013-03-04 17:00:00,34.3,21.1,29.99,West,281,11.0,18.0,58,0.00,,SKC,0.00,VWS V14.00,2013-03-04 22:00:00,
2013-03-04 17:04:00,35.4,21.7,29.97,NW,316,12.0,19.0,57,0.00,,SKC,0.00,VWS V14.00,2013-03-04 22:04:00,
2013-03-04 17:09:00,35.4,21.7,29.97,NNW,342,4.0,19.0,57,0.00,,SKC,0.00,VWS V14.00,2013-03-04 22:09:00,
2013-03-04 17:14:00,35.3,21.6,29.97,West,281,15.0,19.0,57,0.00,,SKC,0.00,VWS V14.00,2013-03-04 22:14:00,
2013-03-04 17:19:00,35.3,21.6,29.98,WNW,300,9.0,19.0,57,0.00,,SKC,0.00,VWS V14.00,2013-03-04 22:19:00,
2013-03-04 17:24:00,35.2,21.9,29.98,NNW,333,7.0,12.0,58,0.00,,SKC,0.00,VWS V14.00,2013-03-04 22:24:00,
2013-03-04 17:29:00,35.1,21.8,29.98,WNW,283,11.0,16.0,58,0.00,,SKC,0.00,VWS V14.00,2013-03-04 22:29:00,
2013-03-04 17:30:00,33.4,21.0,30.00,NW,309,7.0,16.0,60,0.00,,SKC,0.00,VWS V14.00,2013-03-04 22:30:00,
2013-03-04 17:34:00,35.0,21.7,29.99,WNW,288,12.0,16.0,58,0.00,,SKC,0.00,VWS V14.00,2013-03-04 22:34:00,
2013-03-04 17:39:00,34.8,21.5,29.99,NNW,340,11.0,16.0,58,0.00,,SKC,0.00,VWS V14.00,2013-03-04 22:39:00,
2013-03-04 17:44:00,34.6,21.4,29.99,WNW,292,6.0,16.0,58,0.00,,SKC,0.00,VWS V14.00,2013-03-04 22:44:00,
2013-03-04 17:49:00,34.4,21.2,29.99,NNW,328,10.0,18.0,58,0.00,,SKC,0.00,VWS V14.00,2013-03-04 22:49:00,
2013-03-04 17:54:00,34.3,21.5,30.00,WNW,294,9.0,15.0,59,0.00,,SKC,0.00,VWS V14.00,2013-03-04 22:54:00,
2013-03-04 17:59:00,34.0,21.2,30.00,WNW,287,7.0,15.0,59,0.00,,SKC,0.00,VWS V14.00,2013-03-04 22:59:00,
2013-03-04 18:00:00,32.7,21.1,30.01,NW,311,13.0,18.0,62,0.00,,SKC,0.00,VWS V14.00,2013-03-04 23:00:00,
2013-03-04 18:04:00,33.8,21.4,30.00,WNW,302,6.0,15.0,60,0.00,,SKC,0.00,VWS V14.00,2013-03-04 23:04:00,
2013-03-04 18:09:00,33.6,21.2,30.00,NW,305,7.0,15.0,60,0.00,,SKC,0.00,VWS V14.00,2013-03-04 23:09:00,
2013-03-04 18:14:00,33.5,21.1,30.00,WNW,289,12.0,15.0,60,0.00,,SKC,0.00,VWS V14.00,2013-03-04 23:14:00,
2013-03-04 18:19:00,33.5,21.1,30.00,NW,315,8.0,16.0,60,0.00,,SKC,0.00,VWS V14.00,2013-03-04 23:19:00,
2013-03-04 18:24:00,33.4,21.4,30.00,WNW,298,8.0,12.0,61,0.00,,SKC,0.00,VWS V14.00,2013-03-04 23:24:00,
2013-03-04 18:29:00,33.2,21.2,30.01,WNW,299,5.0,12.0,61,0.00,,SKC,0.00,VWS V14.00,2013-03-04 23:29:00,
2013-03-04 18:30:00,32.3,20.8,30.02,WNW,299,7.0,15.0,62,0.00,,SKC,0.00,VWS V14.00,2013-03-04 23:30:00,
2013-03-04 18:34:00,33.0,21.0,30.01,West,281,6.0,12.0,61,0.00,,SKC,0.00,VWS V14.00,2013-03-04 23:34:00,
2013-03-04 18:39:00,32.9,20.9,30.01,NW,315,5.0,18.0,61,0.00,,SKC,0.00,VWS V14.00,2013-03-04 23:39:00,
2013-03-04 18:44:00,32.9,20.9,30.01,WNW,293,11.0,18.0,61,0.00,,SKC,0.00,VWS V14.00,2013-03-04 23:44:00,
2013-03-04 18:49:00,32.8,20.9,30.01,WNW,298,8.0,18.0,61,0.00,,SKC,0.00,VWS V14.00,2013-03-04 23:49:00,
2013-03-04 18:54:00,32.7,20.8,30.01,WNW,292,8.0,15.0,61,0.00,,SKC,0.00,VWS V14.00,2013-03-04 23:54:00,
2013-03-04 18:59:00,32.6,21.0,30.01,WNW,283,5.0,15.0,62,0.00,,SKC,0.00,VWS V14.00,2013-03-04 23:59:00,
2013-03-04 19:00:00,31.9,20.8,30.02,West,281,6.0,15.0,63,0.00,,SKC,0.00,VWS V14.00,2013-03-05 00:00:00,
2013-03-04 19:04:00,32.5,20.9,30.01,WNW,296,7.0,15.0,62,0.00,,SKC,0.00,VWS V14.00,2013-03-05 00:04:00,
2013-03-04 19:09:00,32.6,21.0,30.01,WNW,292,6.0,15.0,62,0.00,,SKC,0.00,VWS V14.00,2013-03-05 00:09:00,
2013-03-04 19:14:00,32.5,20.9,30.01,WNW,294,9.0,15.0,62,0.00,,SKC,0.00,VWS V14.00,2013-03-05 00:14:00,
2013-03-04 19:19:00,32.4,20.9,30.01,West,267,5.0,15.0,62,0.00,,SKC,0.00,VWS V14.00,2013-03-05 00:19:00,
2013-03-04 19:24:00,32.3,20.8,30.01,WNW,298,7.0,10.0,62,0.00,,SKC,0.00,VWS V14.00,2013-03-05 00:24:00,
2013-03-04 19:29:00,32.2,20.7,30.02,West,281,6.0,12.0,62,0.00,,SKC,0.00,VWS V14.00,2013-03-05 00:29:00,
2013-03-04 19:30:00,31.7,20.9,30.03,WNW,288,4.0,14.0,64,0.00,,SKC,0.00,VWS V14.00,2013-03-05 00:30:00,
2013-03-04 19:34:00,32.0,20.5,30.02,WNW,292,5.0,12.0,62,0.00,,SKC,0.00,VWS V14.00,2013-03-05 00:34:00,
2013-03-04 19:39:00,32.0,20.9,30.02,West,281,6.0,13.0,63,0.00,,SKC,0.00,VWS V14.00,2013-03-05 00:39:00,
2013-03-04 19:44:00,32.0,20.9,30.02,WNW,301,4.0,13.0,63,0.00,,SKC,0.00,VWS V14.00,2013-03-05 00:44:00,
2013-03-04 19:49:00,32.0,20.9,30.02,WNW,303,4.0,15.0,63,0.00,,SKC,0.00,VWS V14.00,2013-03-05 00:49:00,
2013-03-04 19:54:00,31.9,20.8,30.02,WNW,294,5.0,8.0,63,0.00,,SKC,0.00,VWS V14.00,2013-03-05 00:54:00,
2013-03-04 19:59:00,31.9,20.8,30.02,West,273,4.0,9.0,63,0.00,,SKC,0.00,VWS V14.00,2013-03-05 00:59:00,
2013-03-04 20:00:00,31.4,21.0,30.03,NW,306,2.0,13.0,65,0.00,,SKC,0.00,VWS V14.00,2013-03-05 01:00:00,
2013-03-04 20:04:00,31.7,20.6,30.02,WNW,297,2.0,9.0,63,0.00,,SKC,0.00,VWS V14.00,2013-03-05 01:04:00,
2013-03-04 20:09:00,31.6,20.5,30.02,NW,321,8.0,9.0,63,0.00,,SKC,0.00,VWS V14.00,2013-03-05 01:09:00,
2013-03-04 20:14:00,31.7,20.6,30.02,WNW,299,6.0,14.0,63,0.00,,SKC,0.00,VWS V14.00,2013-03-05 01:14:00,
2013-03-04 20:19:00,31.7,20.9,30.03,NW,317,2.0,14.0,64,0.00,,SKC,0.00,VWS V14.00,2013-03-05 01:19:00,
2013-03-04 20:24:00,31.7,20.6,30.03,WNW,292,5.0,7.0,63,0.00,,SKC,0.00,VWS V14.00,2013-03-05 01:24:00,
2013-03-04 20:29:00,31.6,20.8,30.03,NW,312,6.0,13.0,64,0.00,,SKC,0.00,VWS V14.00,2013-03-05 01:29:00,
2013-03-04 20:30:00,30.9,21.2,30.04,WNW,293,6.0,11.0,67,0.00,,SKC,0.00,VWS V14.00,2013-03-05 01:30:00,
2013-03-04 20:34:00,31.6,20.8,30.03,WNW,302,5.0,13.0,64,0.00,,SKC,0.00,VWS V14.00,2013-03-05 01:34:00,
2013-03-04 20:39:00,31.6,20.8,30.03,NW,306,4.0,13.0,64,0.00,,SKC,0.00,VWS V14.00,2013-03-05 01:39:00,
2013-03-04 20:44:00,31.5,21.1,30.03,WNW,294,6.0,13.0,65,0.00,,SKC,0.00,VWS V14.00,2013-03-05 01:44:00,
2013-03-04 20:49:00,31.5,21.1,30.03,WNW,293,2.0,13.0,65,0.00,,SKC,0.00,VWS V14.00,2013-03-05 01:49:00,
2013-03-04 20:54:00,31.3,20.9,30.03,West,280,7.0,8.0,65,0.00,,SKC,0.00,VWS V14.00,2013-03-05 01:54:00,
2013-03-04 20:59:00,31.3,20.9,30.03,NW,313,7.0,9.0,65,0.00,,SKC,0.00,VWS V14.00,2013-03-05 01:59:00,
2013-03-04 21:00:00,30.6,20.6,30.04,WNW,302,2.0,9.0,66,0.00,,SKC,0.00,VWS V14.00,2013-03-05 02:00:00,
2013-03-04 21:04:00,31.3,20.9,30.03,NW,306,4.0,9.0,65,0.00,,SKC,0.00,VWS V14.00,2013-03-05 02:04:00,
2013-03-04 21:09:00,31.1,21.1,30.03,WNW,301,2.0,9.0,66,0.00,,SKC,0.00,VWS V14.00,2013-03-05 02:09:00,
2013-03-04 21:14:00,31.0,21.0,30.03,NW,312,6.0,11.0,66,0.00,,SKC,0.00,VWS V14.00,2013-03-05 02:14:00,
2013-03-04 21:19:00,31.0,21.0,30.03,WNW,300,4.0,11.0,66,0.00,,SKC,0.00,VWS V14.00,2013-03-05 02:19:00,
2013-03-04 21:24:00,30.9,21.2,30.04,WNW,294,2.0,6.0,67,0.00,,SKC,0.00,VWS V14.00,2013-03-05 02:24:00,
2013-03-04 21:29:00,30.9,21.2,30.04,NNW,341,6.0,8.0,67,0.00,,SKC,0.00,VWS V14.00,2013-03-05 02:29:00,
2013-03-04 21:30:00,30.2,20.6,30.05,WNW,295,4.0,8.0,67,0.00,,SKC,0.00,VWS V14.00,2013-03-05 02:30:00,
2013-03-04 21:34:00,31.0,21.0,30.04,WNW,288,4.0,9.0,66,0.00,,SKC,0.00,VWS V14.00,2013-03-05 02:34:00,
2013-03-04 21:39:00,31.0,21.0,30.04,NW,315,5.0,9.0,66,0.00,,SKC,0.00,VWS V14.00,2013-03-05 02:39:00,
2013-03-04 21:44:00,30.8,20.8,30.04,West,279,6.0,9.0,66,0.00,,SKC,0.00,VWS V14.00,2013-03-05 02:44:00,
2013-03-04 21:49:00,30.8,20.8,30.04,WNW,289,4.0,9.0,66,0.00,,SKC,0.00,VWS V14.00,2013-03-05 02:49:00,
2013-03-04 21:54:00,30.6,20.6,30.04,WNW,302,1.0,4.0,66,0.00,,SKC,0.00,VWS V14.00,2013-03-05 02:54:00,
2013-03-04 21:59:00,30.5,20.9,30.05,WNW,300,6.0,7.0,67,0.00,,SKC,0.00,VWS V14.00,2013-03-05 02:59:00,
2013-03-04 22:00:00,30.1,20.5,30.06,WNW,294,2.0,9.0,67,0.00,,SKC,0.00,VWS V14.00,2013-03-05 03:00:00,
2013-03-04 22:04:00,30.3,20.7,30.04,WNW,298,4.0,7.0,67,0.00,,SKC,0.00,VWS V14.00,2013-03-05 03:04:00,
2013-03-04 22:09:00,30.2,20.6,30.05,WNW,296,5.0,8.0,67,0.00,,SKC,0.00,VWS V14.00,2013-03-05 03:09:00,
2013-03-04 22:14:00,30.2,20.6,30.05,WNW,299,5.0,8.0,67,0.00,,SKC,0.00,VWS V14.00,2013-03-05 03:14:00,
2013-03-04 22:19:00,30.2,20.6,30.05,NW,317,0.0,8.0,67,0.00,,SKC,0.00,VWS V14.00,2013-03-05 03:19:00,
2013-03-04 22:24:00,30.2,20.6,30.05,WNW,295,4.0,4.0,67,0.00,,SKC,0.00,VWS V14.00,2013-03-05 03:24:00,
2013-03-04 22:29:00,30.2,20.6,30.05,WNW,295,2.0,5.0,67,0.00,,SKC,0.00,VWS V14.00,2013-03-05 03:29:00,
2013-03-04 22:30:00,30.5,20.9,30.05,NW,313,5.0,11.0,67,0.00,,SKC,0.00,VWS V14.00,2013-03-05 03:30:00,
2013-03-04 22:34:00,30.1,20.5,30.05,WNW,292,2.0,8.0,67,0.00,,SKC,0.00,VWS V14.00,2013-03-05 03:34:00,
2013-03-04 22:39:00,30.0,20.4,30.05,WNW,292,4.0,8.0,67,0.00,,SKC,0.00,VWS V14.00,2013-03-05 03:39:00,
2013-03-04 22:44:00,30.0,20.4,30.06,WNW,294,7.0,8.0,67,0.00,,SKC,0.00,VWS V14.00,2013-03-05 03:44:00,
2013-03-04 22:49:00,30.1,20.5,30.06,WNW,294,6.0,9.0,67,0.00,,SKC,0.00,VWS V14.00,2013-03-05 03:49:00,
2013-03-04 22:54:00,30.1,20.5,30.06,WNW,294,6.0,6.0,67,0.00,,SKC,0.00,VWS V14.00,2013-03-05 03:54:00,
2013-03-04 22:59:00,30.1,20.8,30.06,WNW,296,1.0,6.0,68,0.00,,SKC,0.00,VWS V14.00,2013-03-05 03:59:00,
2013-03-04 23:00:00,30.9,20.5,30.05,NW,317,4.0,15.0,65,0.00,,SKC,0.00,VWS V14.00,2013-03-05 04:00:00,
2013-03-04 23:04:00,30.0,20.7,30.05,NW,320,6.0,9.0,68,0.00,,SKC,0.00,VWS V14.00,2013-03-05 04:04:00,
2013-03-04 23:09:00,30.1,20.8,30.06,NW,308,6.0,9.0,68,0.00,,SKC,0.00,VWS V14.00,2013-03-05 04:09:00,
2013-03-04 23:14:00,30.3,20.7,30.05,NW,307,6.0,11.0,67,0.00,,SKC,0.00,VWS V14.00,2013-03-05 04:14:00,
2013-03-04 23:19:00,30.5,20.9,30.05,NNW,334,6.0,11.0,67,0.00,,SKC,0.00,VWS V14.00,2013-03-05 04:19:00,
2013-03-04 23:24:00,30.5,20.9,30.05,NW,325,4.0,8.0,67,0.00,,SKC,0.00,VWS V14.00,2013-03-05 04:24:00,
2013-03-04 23:29:00,30.5,20.9,30.05,NNW,328,6.0,11.0,67,0.00,,SKC,0.00,VWS V14.00,2013-03-05 04:29:00,
2013-03-04 23:30:00,30.6,20.6,30.05,NNW,337,5.0,16.0,66,0.00,,SKC,0.00,VWS V14.00,2013-03-05 04:30:00,
2013-03-04 23:34:00,30.8,20.8,30.05,NW,317,6.0,15.0,66,0.00,,SKC,0.00,VWS V14.00,2013-03-05 04:34:00,
2013-03-04 23:39:00,30.9,20.9,30.05,NNW,327,7.0,15.0,66,0.00,,SKC,0.00,VWS V14.00,2013-03-05 04:39:00,
2013-03-04 23:44:00,31.0,20.6,30.05,North,350,6.0,15.0,65,0.00,,SKC,0.00,VWS V14.00,2013-03-05 04:44:00,
2013-03-04 23:49:00,31.0,20.6,30.05,NNW,327,5.0,15.0,65,0.00,,SKC,0.00,VWS V14.00,2013-03-05 04:49:00,
2013-03-04 23:54:00,30.9,20.5,30.04,NNW,330,7.0,9.0,65,0.00,,SKC,0.00,VWS V14.00,2013-03-05 04:54:00,
2013-03-04 23:59:00,30.9,20.5,30.05,NW,311,7.0,12.0,65,0.00,,SKC,0.00,VWS V14.00,2013-03-05 04:59:00,